[[{"header":{"parameterUnit":"m.s-1","parameterCategory":1,"la1":30.2992,"la2":30.254,"lo1":-89.0895,"lo2":-89.0443,"dy":0.0025,"dx":0.0025,"nx":19,"ny":19,"refTime":"2026-05-03T21:00:00:Z","depth":0,"parameterNumber":2,"parameterNumberName":"U-component_of_WINDS"},"data":[0,0,0,-0.3647,-0.3647,-0.3662,-0.3662,-0.3681,-0.3681,0,0,0,0,0,0,0,0,0,0,0,-0.3641,-0.3641,-0.3646,-0.3647,-0.3662,-0.3662,-0.3681,-0.3681,0,0,0,0,0,0,0,0,0,0,0,-0.3641,-0.3641,-0.3641,-0.3647,-0.3662,-0.3662,-0.3681,-0.367,0,0,0,0,0,0,0,0,0,0,-0.3655,-0.3649,-0.3641,-0.3641,-0.3647,-0.3662,-0.3662,-0.3669,-0.3671,-0.3674,0,-0.3676,0,-0.3679,-0.3682,-0.3682,0,0,0,-0.3648,-0.3648,-0.3653,-0.3641,-0.3647,-0.3662,-0.3655,-0.367,-0.3671,-0.3675,-0.3676,-0.3677,-0.3679,-0.3682,-0.3683,-0.3698,-0.3698,0,0,-0.3647,-0.3643,-0.3652,-0.3654,-0.365,-0.3655,-0.3656,-0.3671,-0.3671,-0.3676,-0.3677,-0.3679,-0.3683,-0.3683,-0.3698,-0.3698,0,0,0,-0.3644,-0.3643,-0.3647,-0.3653,-0.3656,-0.3655,-0.3656,-0.3671,-0.3673,-0.3677,-0.368,-0.3683,-0.3683,-0.3698,-0.3698,-0.3696,0,0,0,-0.3643,-0.3641,-0.3647,-0.3645,-0.3655,-0.3663,-0.3656,-0.3672,-0.3673,-0.3679,-0.3683,-0.3683,-0.3698,-0.3698,-0.3696,-0.3696,0,0,0,-0.364,-0.3641,-0.3642,-0.3645,-0.3651,-0.3663,-0.3666,-0.3672,-0.3675,-0.3682,-0.3683,-0.3698,-0.3698,-0.3696,-0.3696,-0.37,0,0,0,-0.3636,-0.364,-0.3642,-0.3647,-0.3651,-0.3662,-0.3666,-0.3674,-0.368,-0.3683,-0.3698,-0.3698,-0.3696,-0.3696,-0.3699,-0.3702,-0.3703,0,0,-0.3639,-0.364,-0.3644,-0.3646,-0.3656,-0.366,-0.3669,-0.3679,-0.3683,-0.3693,-0.3693,-0.3696,-0.3696,-0.3699,-0.3707,-0.3707,0,0,0,-0.3643,-0.3646,-0.3649,-0.3655,-0.3662,-0.3669,-0.3677,-0.3681,-0.369,-0.3687,-0.3698,-0.3698,-0.3701,-0.3702,-0.3703,-0.3705,-0.3698,-0.3698,-0.3698,-0.3641,-0.3647,-0.3654,-0.3661,-0.3667,-0.3677,-0.3682,-0.3689,-0.3692,-0.3695,-0.3698,-0.3702,-0.3704,-0.3704,-0.3707,-0.37,-0.37,-0.37,-0.37,-0.3646,-0.3651,-0.3657,-0.3665,-0.3672,-0.3679,-0.3689,-0.3691,-0.37,-0.37,-0.3702,-0.3702,-0.3704,-0.3707,-0.37,-0.37,-0.37,-0.37,-0.37,-0.3646,-0.365,-0.3654,-0.3665,-0.3672,-0.368,-0.3689,-0.3694,-0.3699,-0.3702,-0.3706,-0.3706,-0.3708,-0.3703,-0.3703,-0.3703,-0.3703,-0.3703,-0.3703,-0.3644,-0.365,-0.3656,-0.3665,-0.367,-0.3678,-0.3689,-0.3695,-0.3703,-0.3706,-0.3706,-0.371,-0.3703,-0.3702,-0.3704,-0.3704,-0.3704,-0.3704,-0.3704,-0.3648,-0.3648,-0.3657,-0.3663,-0.3675,-0.3683,-0.369,-0.3702,-0.3708,-0.3712,-0.3716,-0.371,-0.3712,-0.3711,-0.371,-0.3714,-0.3714,-0.3714,-0.3714,-0.3648,-0.3649,-0.3661,-0.367,-0.3679,-0.3687,-0.3699,-0.3708,-0.3717,-0.3722,-0.3722,-0.3721,-0.372,-0.3722,-0.3722,-0.3721,-0.3728,-0.3728,-0.3728,-0.3651,-0.3654,-0.3662,-0.3671,-0.3682,-0.3691,-0.3703,-0.3714,-0.3725,-0.3728,-0.3725,-0.3725,-0.3723,-0.3722,-0.3725,-0.3724,-0.3723,0,0]},{"header":{"parameterUnit":"m.s-1","parameterCategory":1,"la1":30.2992,"la2":30.254,"lo1":-89.0895,"lo2":-89.0443,"dy":0.0025,"dx":0.0025,"nx":19,"ny":19,"refTime":"2026-05-03T21:00:00:Z","depth":0,"parameterNumber":3,"parameterNumberName":"V-component_of_WINDS"},"data":[0,0,0,4.6425,4.6427,4.6514,4.6515,4.6634,4.6636,0,0,0,0,0,0,0,0,0,0,0,4.6406,4.6407,4.6425,4.6427,4.6514,4.6515,4.6634,4.6636,0,0,0,0,0,0,0,0,0,0,0,4.6406,4.6407,4.6408,4.6427,4.6514,4.6515,4.6634,4.6565,0,0,0,0,0,0,0,0,0,0,4.6478,4.6469,4.6407,4.6409,4.6428,4.6514,4.6515,4.6561,4.6569,4.6599,0,4.663,0,4.6635,4.6644,4.6645,0,0,0,4.6421,4.6463,4.6479,4.6409,4.6429,4.6514,4.6473,4.6565,4.6574,4.6609,4.6631,4.6636,4.6637,4.6645,4.6646,4.6841,4.6842,0,0,4.6416,4.6426,4.6473,4.6486,4.6475,4.6471,4.6476,4.6571,4.6594,4.6632,4.6638,4.6639,4.6646,4.6647,4.684,4.6841,0,0,0,4.6406,4.6423,4.6437,4.6481,4.6496,4.6473,4.648,4.659,4.6594,4.6639,4.664,4.6647,4.6648,4.6839,4.684,4.6906,0,0,0,4.6403,4.6417,4.6435,4.6442,4.6495,4.6545,4.6497,4.6588,4.6598,4.664,4.6647,4.665,4.6837,4.684,4.6902,4.6935,0,0,0,4.6398,4.6416,4.6431,4.6442,4.648,4.6543,4.6552,4.659,4.6599,4.6645,4.665,4.6837,4.6839,4.6898,4.6928,4.6986,0,0,0,4.6395,4.6491,4.6433,4.654,4.648,4.6585,4.6552,4.6629,4.6677,4.6648,4.6838,4.684,4.6896,4.6924,4.6982,4.7035,4.7059,0,0,4.6521,4.6506,4.6568,4.6519,4.6636,4.6571,4.6697,4.6732,4.6727,4.6803,4.6807,4.6903,4.6928,4.6985,4.7194,4.7213,0,0,0,4.6611,4.6655,4.6684,4.673,4.6759,4.6785,4.68,4.6812,4.6875,4.6769,4.6941,4.6956,4.6989,4.7013,4.7029,4.7055,4.6853,4.6853,4.6853,4.6801,4.679,4.689,4.6889,4.6933,4.6946,4.698,4.6998,4.6975,4.7016,4.7037,4.7165,4.7194,4.7206,4.7234,4.7067,4.7067,4.7067,4.7067,4.6981,4.704,4.7006,4.709,4.7076,4.7146,4.7161,4.7142,4.7203,4.7149,4.7178,4.7117,4.7228,4.725,4.7072,4.7071,4.7071,4.707,4.707,4.7102,4.7128,4.7142,4.7204,4.7253,4.7248,4.7307,4.7294,4.7281,4.731,4.7328,4.7327,4.7321,4.732,4.7321,4.7321,4.7322,4.7322,4.7322,4.7221,4.7234,4.7286,4.7323,4.7348,4.738,4.7392,4.7416,4.7438,4.7423,4.7423,4.7393,4.7242,4.7202,4.7329,4.7328,4.7327,4.7326,4.7326,4.7402,4.7358,4.7439,4.7465,4.7504,4.7551,4.7533,4.7582,4.76,4.7629,4.7593,4.7485,4.7468,4.7455,4.7422,4.7598,4.7598,4.7598,4.7598,4.7501,4.7492,4.7569,4.761,4.7648,4.7639,4.7727,4.7736,4.7738,4.7747,4.772,4.7676,4.7664,4.7654,4.7637,4.7605,4.7824,4.7824,4.7825,4.761,4.7603,4.7681,4.7683,4.7712,4.7737,4.7817,4.7863,4.7857,4.7833,4.7753,4.7744,4.7672,4.765,4.7623,4.7596,4.7538,0,0]}]]